Regional Weather Roundup
Issued by NWS

Home | Current Version | Previous Version | Graphics & Text | Print | Product List | Glossary On
Versions: 1 2 3 4 5 6 7 8 9 10 11 12 13 14 15 16 17 18 19 20 21 22 23 24 25 26 27
000
ASUS45 KSLC 191210
RWRUT

UTAH REGIONAL WEATHER ROUNDUP
NATIONAL WEATHER SERVICE SALT LAKE CITY UT
600 AM MDT THU OCT 19 2017

UTZ001>011-023>025-191300-

NORTHERN UTAH

CITY           SKY/WX    TMP DP  RH WIND       PRES   REMARKS
BRIGHAM CITY   CLEAR     36  26  66 CALM      30.02S
HILL AFB       CLEAR     45  16  31 E18       30.01S
LOGAN          CLEAR     28  21  75 CALM      30.04R
OGDEN          CLEAR     43  19  38 SW6       30.01S
SALT LAKE CITY PTCLDY    46  30  53 E6        30.00S
TOOELE VALLEY  PTCLDY    41  23  48 S9        30.02R
WENDOVER       MOCLDY    40  19  43 NE3       30.01F
WEST JORDAN    PTCLDY    45  26  47 S8        30.02S

$$

UTZ011>015-024>027-191300-

CENTRAL/NORTHEAST UTAH

CITY           SKY/WX    TMP DP  RH WIND       PRES   REMARKS
PROVO AIRPORT  MOCLDY    41  31  67 NE6       30.05S
MOAB/CANYONLAN MOCLDY    49  17  28 CALM      30.05R
DELTA          CLOUDY    41  27  56 NE3       30.04S
PRICE          CLOUDY    49  15  25 N5        30.10F
RICHFIELD      MOCLDY    43  30  61 CALM      30.10
ROOSEVELT      CLOUDY    41  28  60 CALM      30.13R
VERNAL         CLOUDY    39  21  48 CALM      30.11S

$$

UTZ013>016-019>022-027-191300-

SOUTHERN UTAH

CITY           SKY/WX    TMP DP  RH WIND       PRES   REMARKS
BRYCE CANYON   CLOUDY    43  33  68 W9        30.20R
CEDAR CITY     CLOUDY    46  40  79 VRB3      30.08F
MILFORD        CLOUDY    44  20  38 S8        30.05R
ST GEORGE      PTSUNNY   58  36  43 SW3       29.97R
HANKSVILLE     CLOUDY    46  23  39 CALM      30.09R
KANAB          PTCLDY    54  32  43 N5        30.10
BLANDING         N/A     47  22  35 N5        30.20S

$$

REGIONAL REPORTS     COLORADO/ARIZONA

CITY           SKY/WX    TMP DP  RH WIND       PRES   REMARKS
CRAIG, CO      CLOUDY    22  17  81 SW3       30.16F
GRAND JUNCTION CLOUDY    43  19  38 E3        30.09R
RIFLE, CO      CLOUDY    36  21  54 SE3       30.16R
MONTROSE, CO   CLOUDY    41  20  43 S8        30.16S
CORTEZ, CO     CLOUDY    39  28  64 CALM      30.15R
COLORADO CITY  TSTM      52  45  76 SW6       30.07S
PAGE, AZ       MOCLDY    57  26  30 SE3       30.02S
GRAND CANYON   PTCLDY    36  25  64 E3        30.15S
KINGMAN, AZ    PTCLDY    57  32  38 SE3       29.94S
FLAGSTAFF, AZ  PTCLDY    41  29  62 CALM      30.17S

$$

REGIONAL REPORTS    NEVADA/IDAHO/WYOMING

CITY           SKY/WX    TMP DP  RH WIND       PRES   REMARKS
LAS VEGAS, NV  CLOUDY    69  18  14 CALM      29.87S
ELY, NY        CLOUDY    36   6  28 SE9       30.08S WCI  29
ELKO, NV       MOCLDY    29  16  58 NE3       30.03R
POCATELLO, ID  CLOUDY    34  25  69 N5        29.99S WCI  30
BURLEY, ID     PTCLDY    37  25  61 N3        29.94R
FORT BRIDGER,    N/A     46   9  22 CALM      30.16S HAZE
EVANSTON, WY   CLOUDY    44  12  27 SE5       30.13S
ROCK SPRINGS,  CLOUDY    35  10  35 CALM      30.14R

$$




USA.gov is the U.S. government's official web portal to all federal, state and local government web resources and services.